User: anonymous   Login
Location: Unspecified
(0.0000°N, 0.0000°E)
Time: 22:54:57
(UTC+00:00)
Language:

OBJECT E - Orbit

View from above orbital plane
View from above orbital plane
View from above satellite
View from above satellite

Ground track
Ground track

The orbit data is extracted from the following two-line orbital elements,

1 43617U 18070E   18344.16075426  .00004079  00000-0  11316-3 0  9993
2 43617  93.0385 284.9250 0015238 329.1319  30.9037 15.36859816 13141
Epoch (UTC): 10 December 2018 03:51:29
Eccentricity: 0.0015238
inclination: 93.0385°
perigee height: 445 km
apogee height: 466 km
right ascension of ascending node: 284.9250°
argument of perigee: 329.1319°
revolutions per day: 15.36859816
mean anomaly at epoch: 30.9037°
orbit number at epoch: 1314

The dashed part of the orbit path shows where the satellite is in the earth's shadow,  

DLR